Tracking 31027 objects as of 19-Jul-2025
HD Live streaming from Space Station
objects crossing your sky now

TJS-16

Track TJS-16 now!


NORAD ID: 63397
Int'l Code: 2025-064A
Perigee: 35,782.9 km
Apogee: 35,804.8 km
Inclination: 0.2 °
Period: 1,436.1 minutes
Semi major axis: 42164 km
RCS: Unknown
Launch date: March 29, 2025
Source: People's Republic of China (PRC)
Launch site: Wenchang Satellite Launch Center (WSC)
Your satellite tracking list
COSMOS 2502
Track 1 satellite(s)




NASA's NSSDC Master Catalog

Two Line Element Set (TLE):
1 63397U 25064A   25199.75956341 -.00000173  00000-0  00000+0 0  9992
2 63397   0.2374  76.4936 0002594  87.7058 198.5542  1.00271379  1348
Source of the keplerian elements: AFSPC